Time,TemperatureF,DewpointF,PressureIn,WindDirection,WindDirectionDegrees,WindSpeedMPH,WindSpeedGustMPH,Humidity,HourlyPrecipIn,Conditions,Clouds,dailyrainin,SolarRadiationWatts/m^2,SoftwareType,DateUTC
2013-01-02 00:10:00,13.3,6.0,29.94,NW,326,0.0,-999.0,73,-99.99,,,0.00,0,weatherlink.com 1.10,2013-01-02 05:10:00,
2013-01-02 00:25:00,12.8,6.0,29.95,NW,326,0.0,-999.0,73,-99.99,,,0.00,0,weatherlink.com 1.10,2013-01-02 05:25:00,
2013-01-02 00:40:00,12.1,5.0,29.94,NW,326,0.0,-999.0,74,-99.99,,,0.00,0,weatherlink.com 1.10,2013-01-02 05:40:00,
2013-01-02 00:55:00,11.7,5.0,29.93,NW,326,0.0,-999.0,75,-99.99,,,0.00,0,weatherlink.com 1.10,2013-01-02 05:55:00,
2013-01-02 01:10:00,11.6,6.0,29.94,NW,326,0.0,-999.0,77,-99.99,,,0.00,0,weatherlink.com 1.10,2013-01-02 06:10:00,
2013-01-02 01:41:00,10.7,5.0,29.93,ENE,58,0.0,-999.0,78,-99.99,,,0.00,0,weatherlink.com 1.10,2013-01-02 06:41:00,
2013-01-02 01:56:00,10.0,4.0,29.94,ENE,59,1.0,-999.0,78,-99.99,,,0.00,0,weatherlink.com 1.10,2013-01-02 06:56:00,
2013-01-02 02:11:00,9.9,5.0,29.93,ENE,73,3.0,-999.0,79,-99.99,,,0.00,0,weatherlink.com 1.10,2013-01-02 07:11:00,
2013-01-02 02:26:00,9.5,4.0,29.92,ENE,73,0.0,-999.0,79,-99.99,,,0.00,0,weatherlink.com 1.10,2013-01-02 07:26:00,
2013-01-02 02:41:00,10.0,5.0,29.93,ENE,73,1.0,-999.0,80,-99.99,,,0.00,0,weatherlink.com 1.10,2013-01-02 07:41:00,
2013-01-02 02:56:00,11.9,7.0,29.93,SSE,161,7.0,-999.0,82,-99.99,,,0.00,0,weatherlink.com 1.10,2013-01-02 07:56:00,
2013-01-02 03:11:00,12.8,8.0,29.93,South,169,5.0,-999.0,82,-99.99,,,0.00,0,weatherlink.com 1.10,2013-01-02 08:11:00,
2013-01-02 03:26:00,13.1,9.0,29.93,South,179,5.0,-999.0,82,-99.99,,,0.00,0,weatherlink.com 1.10,2013-01-02 08:26:00,
2013-01-02 03:41:00,13.3,9.0,29.91,SSE,165,0.0,-999.0,81,-99.99,,,0.00,0,weatherlink.com 1.10,2013-01-02 08:41:00,
2013-01-02 03:56:00,13.8,9.0,29.91,SE,145,3.0,-999.0,81,-99.99,,,0.00,0,weatherlink.com 1.10,2013-01-02 08:56:00,
2013-01-02 04:11:00,14.4,9.0,29.91,SE,127,2.0,-999.0,80,-99.99,,,0.00,0,weatherlink.com 1.10,2013-01-02 09:11:00,
2013-01-02 04:26:00,14.8,10.0,29.90,SSE,168,3.0,-999.0,80,-99.99,,,0.00,0,weatherlink.com 1.10,2013-01-02 09:26:00,
2013-01-02 04:41:00,15.4,10.0,29.90,South,188,1.0,-999.0,80,-99.99,,,0.00,0,weatherlink.com 1.10,2013-01-02 09:41:00,
2013-01-02 04:56:00,15.9,11.0,29.90,WSW,237,4.0,-999.0,79,-99.99,,,0.00,0,weatherlink.com 1.10,2013-01-02 09:56:00,
2013-01-02 05:11:00,16.1,10.0,29.90,SSW,213,1.0,-999.0,76,-99.99,,,0.00,0,weatherlink.com 1.10,2013-01-02 10:11:00,
2013-01-02 05:26:00,15.9,9.0,29.90,SW,234,0.0,-999.0,75,-99.99,,,0.00,0,weatherlink.com 1.10,2013-01-02 10:26:00,
2013-01-02 05:41:00,15.9,9.0,29.90,SW,229,2.0,-999.0,75,-99.99,,,0.00,0,weatherlink.com 1.10,2013-01-02 10:41:00,
2013-01-02 06:11:00,16.4,9.0,29.89,SW,224,3.0,-999.0,74,-99.99,,,0.00,0,weatherlink.com 1.10,2013-01-02 11:11:00,
2013-01-02 06:26:00,16.7,10.0,29.89,SSW,213,2.0,-999.0,74,-99.99,,,0.00,0,weatherlink.com 1.10,2013-01-02 11:26:00,
2013-01-02 06:41:00,16.9,10.0,29.89,WSW,244,5.0,-999.0,75,-99.99,,,0.00,0,weatherlink.com 1.10,2013-01-02 11:41:00,
2013-01-02 06:56:00,17.7,11.0,29.89,West,267,2.0,-999.0,75,-99.99,,,0.00,0,weatherlink.com 1.10,2013-01-02 11:56:00,
2013-01-02 07:13:00,18.3,11.0,29.90,West,271,2.0,-999.0,73,-99.99,,,0.00,0,weatherlink.com 1.10,2013-01-02 12:13:00,
2013-01-02 07:26:00,18.6,11.0,29.90,WSW,257,5.0,-999.0,73,-99.99,,,0.00,0,weatherlink.com 1.10,2013-01-02 12:26:00,
2013-01-02 07:41:00,19.2,11.0,29.90,West,270,8.0,-999.0,71,-99.99,,,0.00,0,weatherlink.com 1.10,2013-01-02 12:41:00,
2013-01-02 07:56:00,19.5,11.0,29.90,WSW,244,5.0,-999.0,70,-99.99,,,0.00,12,weatherlink.com 1.10,2013-01-02 12:56:00,
2013-01-02 08:11:00,19.7,11.0,29.90,WSW,247,5.0,-999.0,70,-99.99,,,0.00,12,weatherlink.com 1.10,2013-01-02 13:11:00,
2013-01-02 08:26:00,20.2,12.0,29.90,WNW,295,3.0,-999.0,69,-99.99,,,0.00,35,weatherlink.com 1.10,2013-01-02 13:26:00,
2013-01-02 08:41:00,20.5,12.0,29.90,West,263,1.0,-999.0,69,-99.99,,,0.00,28,weatherlink.com 1.10,2013-01-02 13:41:00,
2013-01-02 08:56:00,20.6,12.0,29.91,NW,325,5.0,-999.0,68,-99.99,,,0.00,58,weatherlink.com 1.10,2013-01-02 13:56:00,
2013-01-02 09:11:00,20.8,12.0,29.92,WNW,288,2.0,-999.0,69,-99.99,,,0.00,46,weatherlink.com 1.10,2013-01-02 14:11:00,
2013-01-02 09:26:00,20.6,13.0,29.93,NNW,329,7.0,-999.0,72,-99.99,,,0.00,72,weatherlink.com 1.10,2013-01-02 14:26:00,
2013-01-02 09:41:00,20.2,14.0,29.94,NW,315,3.0,-999.0,77,-99.99,,,0.00,65,weatherlink.com 1.10,2013-01-02 14:41:00,
2013-01-02 09:56:00,19.9,15.0,29.95,WNW,285,5.0,-999.0,80,-99.99,,,0.00,83,weatherlink.com 1.10,2013-01-02 14:56:00,
2013-01-02 10:11:00,19.9,15.0,29.95,NW,318,6.0,-999.0,81,-99.99,,,0.00,132,weatherlink.com 1.10,2013-01-02 15:11:00,
2013-01-02 10:26:00,20.2,16.0,29.96,WSW,257,4.0,-999.0,82,-99.99,,,0.00,127,weatherlink.com 1.10,2013-01-02 15:26:00,
2013-01-02 10:41:00,20.3,16.0,29.95,West,267,4.0,-999.0,82,-99.99,,,0.00,123,weatherlink.com 1.10,2013-01-02 15:41:00,
2013-01-02 10:56:00,20.3,16.0,29.95,West,274,4.0,-999.0,82,-99.99,,,0.00,128,weatherlink.com 1.10,2013-01-02 15:56:00,
2013-01-02 11:11:00,20.6,16.0,29.94,NW,325,7.0,-999.0,82,-99.99,,,0.00,128,weatherlink.com 1.10,2013-01-02 16:11:00,
2013-01-02 11:26:00,20.6,16.0,29.95,NNW,339,11.0,-999.0,82,-99.99,,,0.00,144,weatherlink.com 1.10,2013-01-02 16:26:00,
2013-01-02 11:42:00,21.0,16.0,29.95,NW,313,4.0,-999.0,82,-99.99,,,0.00,137,weatherlink.com 1.10,2013-01-02 16:42:00,
2013-01-02 11:57:00,21.1,16.0,29.95,NW,308,5.0,-999.0,82,-99.99,,,0.00,160,weatherlink.com 1.10,2013-01-02 16:57:00,
2013-01-02 12:12:00,21.4,17.0,29.95,NW,305,10.0,-999.0,82,-99.99,,,0.00,139,weatherlink.com 1.10,2013-01-02 17:12:00,
2013-01-02 12:27:00,21.4,17.0,29.95,WNW,302,5.0,-999.0,82,-99.99,,,0.00,134,weatherlink.com 1.10,2013-01-02 17:27:00,
2013-01-02 12:42:00,21.8,17.0,29.95,WNW,298,6.0,-999.0,82,-99.99,,,0.00,146,weatherlink.com 1.10,2013-01-02 17:42:00,
2013-01-02 12:57:00,21.9,17.0,29.95,NW,320,4.0,-999.0,82,-99.99,,,0.00,120,weatherlink.com 1.10,2013-01-02 17:57:00,
2013-01-02 13:12:00,21.9,17.0,29.95,WNW,301,4.0,-999.0,82,-99.99,,,0.00,106,weatherlink.com 1.10,2013-01-02 18:12:00,
2013-01-02 13:27:00,22.1,17.0,29.96,West,278,6.0,-999.0,82,-99.99,,,0.00,123,weatherlink.com 1.10,2013-01-02 18:27:00,
2013-01-02 13:42:00,22.1,17.0,29.96,West,277,2.0,-999.0,82,-99.99,,,0.00,100,weatherlink.com 1.10,2013-01-02 18:42:00,
2013-01-02 13:57:00,22.2,18.0,29.98,NW,326,6.0,-999.0,83,-99.99,,,0.00,139,weatherlink.com 1.10,2013-01-02 18:57:00,
2013-01-02 14:12:00,22.2,18.0,29.98,NW,312,9.0,-999.0,82,-99.99,,,0.00,102,weatherlink.com 1.10,2013-01-02 19:12:00,
2013-01-02 14:27:00,21.9,16.0,29.98,NNW,329,4.0,-999.0,79,-99.99,,,0.00,107,weatherlink.com 1.10,2013-01-02 19:27:00,
2013-01-02 14:42:00,21.9,14.0,29.99,NW,320,6.0,-999.0,72,-99.99,,,0.00,91,weatherlink.com 1.10,2013-01-02 19:42:00,
2013-01-02 14:57:00,21.9,13.0,30.00,NNW,333,8.0,-999.0,69,-99.99,,,0.00,77,weatherlink.com 1.10,2013-01-02 19:57:00,
2013-01-02 15:12:00,21.8,12.0,30.01,WNW,291,6.0,-999.0,67,-99.99,,,0.00,63,weatherlink.com 1.10,2013-01-02 20:12:00,
2013-01-02 15:27:00,21.4,12.0,30.02,NNW,330,6.0,-999.0,66,-99.99,,,0.00,42,weatherlink.com 1.10,2013-01-02 20:27:00,
2013-01-02 15:42:00,21.1,11.0,30.02,NNW,337,10.0,-999.0,65,-99.99,,,0.00,33,weatherlink.com 1.10,2013-01-02 20:42:00,
2013-01-02 15:57:00,20.8,11.0,30.04,NNW,330,5.0,-999.0,65,-99.99,,,0.00,25,weatherlink.com 1.10,2013-01-02 20:57:00,
2013-01-02 16:12:00,20.3,10.0,30.04,NW,315,8.0,-999.0,64,-99.99,,,0.00,12,weatherlink.com 1.10,2013-01-02 21:12:00,
2013-01-02 16:27:00,20.0,9.0,30.04,NNW,328,6.0,-999.0,63,-99.99,,,0.00,0,weatherlink.com 1.10,2013-01-02 21:27:00,
2013-01-02 16:42:00,19.5,9.0,30.05,NW,319,3.0,-999.0,65,-99.99,,,0.00,0,weatherlink.com 1.10,2013-01-02 21:42:00,
2013-01-02 16:57:00,19.1,9.0,30.05,NW,313,2.0,-999.0,66,-99.99,,,0.00,0,weatherlink.com 1.10,2013-01-02 21:57:00,
2013-01-02 17:12:00,18.1,8.0,30.06,North,359,3.0,-999.0,66,-99.99,,,0.00,0,weatherlink.com 1.10,2013-01-02 22:12:00,
2013-01-02 17:27:00,17.3,8.0,30.07,NNE,14,5.0,-999.0,67,-99.99,,,0.00,0,weatherlink.com 1.10,2013-01-02 22:27:00,
2013-01-02 17:42:00,16.4,7.0,30.08,NNE,14,3.0,-999.0,67,-99.99,,,0.00,0,weatherlink.com 1.10,2013-01-02 22:42:00,
2013-01-02 17:57:00,15.6,6.0,30.09,North,3,2.0,-999.0,67,-99.99,,,0.00,0,weatherlink.com 1.10,2013-01-02 22:57:00,
2013-01-02 18:12:00,14.3,5.0,30.09,North,0,4.0,-999.0,66,-99.99,,,0.00,0,weatherlink.com 1.10,2013-01-02 23:12:00,
2013-01-02 18:42:00,11.9,1.0,30.11,North,6,3.0,-999.0,62,-99.99,,,0.00,0,weatherlink.com 1.10,2013-01-02 23:42:00,
2013-01-02 18:57:00,10.9,-1.0,30.11,North,0,3.0,-999.0,60,-99.99,,,0.00,0,weatherlink.com 1.10,2013-01-02 23:57:00,
2013-01-02 19:12:00,10.2,-2.0,30.12,NNW,343,2.0,-999.0,58,-99.99,,,0.00,0,weatherlink.com 1.10,2013-01-03 00:12:00,
2013-01-02 19:27:00,9.7,-3.0,30.12,NW,318,1.0,-999.0,58,-99.99,,,0.00,0,weatherlink.com 1.10,2013-01-03 00:27:00,
2013-01-02 19:42:00,9.5,-2.0,30.13,NW,318,1.0,-999.0,59,-99.99,,,0.00,0,weatherlink.com 1.10,2013-01-03 00:42:00,
2013-01-02 19:57:00,9.2,-2.0,30.13,NW,318,1.0,-999.0,60,-99.99,,,0.00,0,weatherlink.com 1.10,2013-01-03 00:57:00,
2013-01-02 20:12:00,8.6,-3.0,30.13,NW,318,1.0,-999.0,60,-99.99,,,0.00,0,weatherlink.com 1.10,2013-01-03 01:12:00,
2013-01-02 20:27:00,8.1,-3.0,30.12,NW,313,3.0,-999.0,61,-99.99,,,0.00,0,weatherlink.com 1.10,2013-01-03 01:27:00,
2013-01-02 20:42:00,7.4,-4.0,30.13,NW,319,0.0,-999.0,61,-99.99,,,0.00,0,weatherlink.com 1.10,2013-01-03 01:42:00,
2013-01-02 20:57:00,6.9,-3.0,30.14,NW,311,2.0,-999.0,63,-99.99,,,0.00,0,weatherlink.com 1.10,2013-01-03 01:57:00,
2013-01-02 21:13:00,6.1,-4.0,30.15,NW,311,1.0,-999.0,64,-99.99,,,0.00,0,weatherlink.com 1.10,2013-01-03 02:13:00,
2013-01-02 21:28:00,5.4,-4.0,30.16,NW,326,1.0,-999.0,64,-99.99,,,0.00,0,weatherlink.com 1.10,2013-01-03 02:28:00,
2013-01-02 21:43:00,5.0,-4.0,30.16,NW,326,0.0,-999.0,66,-99.99,,,0.00,0,weatherlink.com 1.10,2013-01-03 02:43:00,
2013-01-02 21:58:00,4.7,-4.0,30.16,NW,326,0.0,-999.0,67,-99.99,,,0.00,0,weatherlink.com 1.10,2013-01-03 02:58:00,
2013-01-02 22:13:00,4.3,-4.0,30.16,NW,326,1.0,-999.0,67,-99.99,,,0.00,0,weatherlink.com 1.10,2013-01-03 03:13:00,
2013-01-02 22:28:00,3.9,-5.0,30.16,NW,326,1.0,-999.0,67,-99.99,,,0.00,0,weatherlink.com 1.10,2013-01-03 03:28:00,
2013-01-02 22:58:00,3.0,-6.0,30.17,NW,326,0.0,-999.0,66,-99.99,,,0.00,0,weatherlink.com 1.10,2013-01-03 03:58:00,
2013-01-02 23:13:00,1.8,-7.0,30.18,NW,326,0.0,-999.0,66,-99.99,,,0.00,0,weatherlink.com 1.10,2013-01-03 04:13:00,
2013-01-02 23:28:00,0.7,-8.0,30.18,NW,326,0.0,-999.0,66,-99.99,,,0.00,0,weatherlink.com 1.10,2013-01-03 04:28:00,
2013-01-02 23:44:00,-0.2,-9.0,30.20,NW,326,0.0,-999.0,66,-99.99,,,0.00,0,weatherlink.com 1.10,2013-01-03 04:44:00,
2013-01-02 23:58:00,-1.2,-10.0,30.20,NW,326,0.0,-999.0,67,-99.99,,,0.00,0,weatherlink.com 1.10,2013-01-03 04:58:00,